owner,sensor,date,latitude,longitude,vertical_datum,direction_of_sea_water_velocity,sea_water_speed,upward_sea_water_velocity,qcFlag 
TABS,ioos:station:wmo:42045:1,1999-04-01T00:00:00Z,26.2168,-96.4998,2.0,222.4293523,16.55588415,-99999.0,'11111222,11111222,99999999' 
TABS,ioos:station:wmo:42045:1,1999-04-01T02:00:00Z,26.2168,-96.4998,2.0,222.4293523,16.55588415,-99999.0,'11111222,11111222,99999999' 
TABS,ioos:station:wmo:42045:1,1999-04-01T02:30:00Z,26.2168,-96.4998,2.0,235.8578739,15.12714448,-99999.0,'11111222,11111222,99999999' 
TABS,ioos:station:wmo:42045:1,1999-04-01T03:00:00Z,26.2168,-96.4998,2.0,232.1431724,13.59001472,-99999.0,'11111222,11111222,99999999' 
TABS,ioos:station:wmo:42045:1,1999-04-01T03:30:00Z,26.2168,-96.4998,2.0,242.8185316,12.06204792,-99999.0,'11111222,11111222,99999999' 
TABS,ioos:station:wmo:42045:1,1999-04-01T04:00:00Z,26.2168,-96.4998,2.0,252.3923218,9.851522725,-99999.0,'11133222,11111222,99999999' 
TABS,ioos:station:wmo:42045:1,1999-04-01T04:30:00Z,26.2168,-96.4998,2.0,251.0258587,5.044055908,-99999.0,'11133222,11111222,99999999' 
TABS,ioos:station:wmo:42045:1,1999-04-01T05:00:00Z,26.2168,-96.4998,2.0,260.8372535,3.768076432,-99999.0,'11133222,11111222,99999999' 
TABS,ioos:station:wmo:42045:1,1999-04-01T05:30:00Z,26.2168,-96.4998,2.0,284.805121,5.244091914,-99999.0,'11133222,11111222,99999999' 
TABS,ioos:station:wmo:42045:1,1999-04-01T06:00:00Z,26.2168,-96.4998,2.0,281.4091124,2.274950549,-99999.0,'11133222,11111222,99999999' 
TABS,ioos:station:wmo:42045:1,1999-04-01T06:30:00Z,26.2168,-96.4998,2.0,14.14965346,1.227232659,-99999.0,'11133222,11111222,99999999' 
TABS,ioos:station:wmo:42045:1,1999-04-01T07:00:00Z,26.2168,-96.4998,2.0,48.71207031,3.167412193,-99999.0,'11133222,11111222,99999999' 
TABS,ioos:station:wmo:42045:1,1999-04-01T07:30:00Z,26.2168,-96.4998,2.0,85.57114139,5.827400793,-99999.0,'11133222,11111222,99999999' 
TABS,ioos:station:wmo:42045:1,1999-04-01T08:00:00Z,26.2168,-96.4998,2.0,85.62846355,9.708243919,-99999.0,'11133222,11111222,99999999' 
TABS,ioos:station:wmo:42045:1,1999-04-01T08:30:00Z,26.2168,-96.4998,2.0,92.90154292,14.6187414,-99999.0,'11111222,11111222,99999999' 
TABS,ioos:station:wmo:42045:1,1999-04-01T09:00:00Z,26.2168,-96.4998,2.0,91.06816049,16.09279653,-99999.0,'11111222,11111222,99999999' 
TABS,ioos:station:wmo:42045:1,1999-04-01T09:30:00Z,26.2168,-96.4998,2.0,95.42154206,17.35764961,-99999.0,'11111222,11111222,99999999' 
TABS,ioos:station:wmo:42045:1,1999-04-01T10:00:00Z,26.2168,-96.4998,2.0,100.0351273,17.10163735,-99999.0,'11111222,11111222,99999999' 
TABS,ioos:station:wmo:42045:1,1999-04-01T10:30:00Z,26.2168,-96.4998,2.0,101.4715946,19.45872041,-99999.0,'11111222,11111222,99999999' 
TABS,ioos:station:wmo:42045:1,1999-04-01T11:00:00Z,26.2168,-96.4998,2.0,102.8457884,20.78008662,-99999.0,'11111222,11111222,99999999' 
TABS,ioos:station:wmo:42045:1,1999-04-01T11:30:00Z,26.2168,-96.4998,2.0,100.8532554,22.14613736,-99999.0,'11111222,11111222,99999999' 
TABS,ioos:station:wmo:42045:1,1999-04-01T12:00:00Z,26.2168,-96.4998,2.0,112.6128094,25.1753848,-99999.0,'11111222,11111222,99999999' 
TABS,ioos:station:wmo:42045:1,1999-04-01T12:30:00Z,26.2168,-96.4998,2.0,111.7467832,25.34371125,-99999.0,'11111222,11111222,99999999' 
TABS,ioos:station:wmo:42045:1,1999-04-01T13:00:00Z,26.2168,-96.4998,2.0,114.5712689,28.665856,-99999.0,'11111222,11111222,99999999' 
TABS,ioos:station:wmo:42045:1,1999-04-01T13:30:00Z,26.2168,-96.4998,2.0,117.0811521,29.78563412,-99999.0,'11111222,11111222,99999999' 
TABS,ioos:station:wmo:42045:1,1999-04-01T14:00:00Z,26.2168,-96.4998,2.0,112.0556326,30.54532697,-99999.0,'11111222,11111222,99999999' 
TABS,ioos:station:wmo:42045:1,1999-04-01T14:30:00Z,26.2168,-96.4998,2.0,129.3632254,32.18046768,-99999.0,'11111222,11111222,99999999' 
TABS,ioos:station:wmo:42045:1,1999-04-01T15:00:00Z,26.2168,-96.4998,2.0,132.4202748,30.47890418,-99999.0,'11111222,11111222,99999999' 
TABS,ioos:station:wmo:42045:1,1999-04-01T15:30:00Z,26.2168,-96.4998,2.0,112.1252298,38.76452115,-99999.0,'11111222,11111222,99999999' 
TABS,ioos:station:wmo:42045:1,1999-04-01T16:00:00Z,26.2168,-96.4998,2.0,108.9196845,22.05135143,-99999.0,'11111222,11111222,99999999' 
TABS,ioos:station:wmo:42045:1,1999-04-01T16:30:00Z,26.2168,-96.4998,2.0,138.1826749,22.79693181,-99999.0,'11111222,11111222,99999999' 
TABS,ioos:station:wmo:42045:1,1999-04-01T17:00:00Z,26.2168,-96.4998,2.0,154.7429755,28.99146943,-99999.0,'11111222,11111222,99999999' 
TABS,ioos:station:wmo:42045:1,1999-04-02T12:00:00Z,26.2168,-96.4998,2.0,145.8826543,16.74131715,-99999.0,'11111222,11111222,99999999' 
TABS,ioos:station:wmo:42045:1,1999-04-02T19:00:00Z,26.2168,-96.4998,2.0,154.3065182,26.45574607,-99999.0,'11111222,11111222,99999999' 
TABS,ioos:station:wmo:42045:1,1999-04-02T19:30:00Z,26.2168,-96.4998,2.0,152.9127589,29.45023769,-99999.0,'11111222,11111222,99999999' 
TABS,ioos:station:wmo:42045:1,1999-04-02T20:00:00Z,26.2168,-96.4998,2.0,152.4071861,29.92340221,-99999.0,'11111222,11111222,99999999' 
TABS,ioos:station:wmo:42045:1,1999-04-02T20:30:00Z,26.2168,-96.4998,2.0,150.0720613,28.36192694,-99999.0,'11111222,11111222,99999999' 
TABS,ioos:station:wmo:42045:1,1999-04-02T21:00:00Z,26.2168,-96.4998,2.0,148.7619067,31.89395711,-99999.0,'11111222,11111222,99999999' 
TABS,ioos:station:wmo:42045:1,1999-04-02T21:30:00Z,26.2168,-96.4998,2.0,149.4312415,29.59278459,-99999.0,'11111222,11111222,99999999' 
TABS,ioos:station:wmo:42045:1,1999-04-02T22:00:00Z,26.2168,-96.4998,2.0,147.4958766,32.15731332,-99999.0,'11111222,11111222,99999999' 
TABS,ioos:station:wmo:42045:1,1999-04-02T22:30:00Z,26.2168,-96.4998,2.0,160.7545088,42.92905077,-99999.0,'11111222,11111222,99999999' 
TABS,ioos:station:wmo:42045:1,1999-04-02T23:00:00Z,26.2168,-96.4998,2.0,153.5405119,38.78242901,-99999.0,'11111222,11111222,99999999' 
TABS,ioos:station:wmo:42045:1,1999-04-02T23:30:00Z,26.2168,-96.4998,2.0,127.7234126,45.77908038,-99999.0,'11111222,11111222,99999999' 
TABS,ioos:station:wmo:42045:1,1999-04-03T00:00:00Z,26.2168,-96.4998,2.0,139.3985898,68.68560621,-99999.0,'11111222,11111222,99999999' 
TABS,ioos:station:wmo:42045:1,1999-04-03T00:30:00Z,26.2168,-96.4998,2.0,141.3759909,39.85867534,-99999.0,'11111222,11111222,99999999' 
TABS,ioos:station:wmo:42045:1,1999-04-03T01:00:00Z,26.2168,-96.4998,2.0,144.0505953,38.83701327,-99999.0,'11111222,11111222,99999999' 
TABS,ioos:station:wmo:42045:1,1999-04-03T01:30:00Z,26.2168,-96.4998,2.0,143.344601,38.4422697,-99999.0,'11111222,11111222,99999999' 
TABS,ioos:station:wmo:42045:1,1999-04-03T02:00:00Z,26.2168,-96.4998,2.0,148.362884,36.9279095,-99999.0,'11111222,11111222,99999999' 
TABS,ioos:station:wmo:42045:1,1999-04-03T02:30:00Z,26.2168,-96.4998,2.0,150.0166717,36.97879528,-99999.0,'11111222,11111222,99999999' 
TABS,ioos:station:wmo:42045:1,1999-04-03T03:00:00Z,26.2168,-96.4998,2.0,149.9244189,38.05324953,-99999.0,'11111222,11111222,99999999' 
TABS,ioos:station:wmo:42045:1,1999-04-03T03:30:00Z,26.2168,-96.4998,2.0,158.3800331,33.98056062,-99999.0,'11111222,11111222,99999999' 
TABS,ioos:station:wmo:42045:1,1999-04-03T04:00:00Z,26.2168,-96.4998,2.0,159.1398396,32.21134738,-99999.0,'11111222,11111222,99999999' 
TABS,ioos:station:wmo:42045:1,1999-04-03T04:30:00Z,26.2168,-96.4998,2.0,162.634797,27.94359497,-99999.0,'11111222,11111222,99999999' 
TABS,ioos:station:wmo:42045:1,1999-04-03T05:00:00Z,26.2168,-96.4998,2.0,160.0829274,31.0576303,-99999.0,'11111222,11111222,99999999' 
TABS,ioos:station:wmo:42045:1,1999-04-03T05:30:00Z,26.2168,-96.4998,2.0,160.9558882,26.47924659,-99999.0,'11111222,11111222,99999999' 
TABS,ioos:station:wmo:42045:1,1999-04-03T06:00:00Z,26.2168,-96.4998,2.0,159.0354602,22.4993911,-99999.0,'11111222,11111222,99999999' 
TABS,ioos:station:wmo:42045:1,1999-04-03T06:30:00Z,26.2168,-96.4998,2.0,163.2175961,21.16127832,-99999.0,'11111222,11111222,99999999' 
TABS,ioos:station:wmo:42045:1,1999-04-03T07:00:00Z,26.2168,-96.4998,2.0,162.36558,17.19814525,-99999.0,'11111222,11111222,99999999' 
TABS,ioos:station:wmo:42045:1,1999-04-03T07:30:00Z,26.2168,-96.4998,2.0,159.8084979,18.57129505,-99999.0,'11111222,11111222,99999999' 
TABS,ioos:station:wmo:42045:1,1999-04-03T08:00:00Z,26.2168,-96.4998,2.0,159.3819556,17.35136018,-99999.0,'11111222,11111222,99999999' 
TABS,ioos:station:wmo:42045:1,1999-04-03T08:30:00Z,26.2168,-96.4998,2.0,148.0144217,18.27436456,-99999.0,'11111222,11111222,99999999' 
TABS,ioos:station:wmo:42045:1,1999-04-03T09:00:00Z,26.2168,-96.4998,2.0,143.2383001,16.92603025,-99999.0,'11111222,11111222,99999999' 
TABS,ioos:station:wmo:42045:1,1999-04-03T09:30:00Z,26.2168,-96.4998,2.0,145.4313309,19.1754661,-99999.0,'11111222,11111222,99999999' 
TABS,ioos:station:wmo:42045:1,1999-04-03T10:00:00Z,26.2168,-96.4998,2.0,144.9280736,15.29753248,-99999.0,'11111222,11111222,99999999' 
TABS,ioos:station:wmo:42045:1,1999-04-03T10:30:00Z,26.2168,-96.4998,2.0,139.3241316,16.69281282,-99999.0,'11111222,11111222,99999999' 
TABS,ioos:station:wmo:42045:1,1999-04-03T11:00:00Z,26.2168,-96.4998,2.0,154.0145006,13.26056183,-99999.0,'11111222,11111222,99999999' 
TABS,ioos:station:wmo:42045:1,1999-04-03T11:30:00Z,26.2168,-96.4998,2.0,145.9329467,12.22863034,-99999.0,'11111222,11111222,99999999' 
TABS,ioos:station:wmo:42045:1,1999-04-03T12:00:00Z,26.2168,-96.4998,2.0,140.2943288,10.26857342,-99999.0,'11111222,11111222,99999999' 
TABS,ioos:station:wmo:42045:1,1999-04-03T12:30:00Z,26.2168,-96.4998,2.0,133.35287,11.07079491,-99999.0,'11111222,11111222,99999999' 
TABS,ioos:station:wmo:42045:1,1999-04-03T13:00:00Z,26.2168,-96.4998,2.0,131.1162179,9.291506875,-99999.0,'11133222,11111222,99999999' 
TABS,ioos:station:wmo:42045:1,1999-04-03T13:30:00Z,26.2168,-96.4998,2.0,125.0458455,12.19017637,-99999.0,'11111222,11111222,99999999' 
TABS,ioos:station:wmo:42045:1,1999-04-03T14:00:00Z,26.2168,-96.4998,2.0,90.0,1.04,-99999.0,'11133222,11111222,99999999' 
TABS,ioos:station:wmo:42045:1,1999-04-03T14:30:00Z,26.2168,-96.4998,2.0,41.73582914,5.588139225,-99999.0,'11133222,11111222,99999999' 
TABS,ioos:station:wmo:42045:1,1999-04-03T15:00:00Z,26.2168,-96.4998,2.0,296.56541,9.995223859,-99999.0,'11133222,11111222,99999999' 
TABS,ioos:station:wmo:42045:1,1999-04-03T15:30:00Z,26.2168,-96.4998,2.0,318.9375316,12.25479906,-99999.0,'11111222,11111222,99999999' 
TABS,ioos:station:wmo:42045:1,1999-04-03T16:00:00Z,26.2168,-96.4998,2.0,304.7502723,11.24569695,-99999.0,'11111222,11111222,99999999' 
TABS,ioos:station:wmo:42045:1,1999-04-03T16:30:00Z,26.2168,-96.4998,2.0,354.1041769,5.840898903,-99999.0,'11133222,11111222,99999999' 
TABS,ioos:station:wmo:42045:1,1999-04-03T17:00:00Z,26.2168,-96.4998,2.0,344.1404555,14.70995921,-99999.0,'11111222,11111222,99999999' 
TABS,ioos:station:wmo:42045:1,1999-04-03T17:30:00Z,26.2168,-96.4998,2.0,351.9379727,19.10886705,-99999.0,'11111222,11111222,99999999' 
TABS,ioos:station:wmo:42045:1,1999-04-03T18:00:00Z,26.2168,-96.4998,2.0,344.2985714,14.85430577,-99999.0,'11111222,11111222,99999999' 
TABS,ioos:station:wmo:42045:1,1999-04-03T18:30:00Z,26.2168,-96.4998,2.0,348.5404379,21.74347028,-99999.0,'11111222,11111222,99999999' 
TABS,ioos:station:wmo:42045:1,1999-04-03T19:00:00Z,26.2168,-96.4998,2.0,8.073017267,21.22028511,-99999.0,'11111222,11111222,99999999' 
TABS,ioos:station:wmo:42045:1,1999-04-03T19:30:00Z,26.2168,-96.4998,2.0,6.188586401,30.42730517,-99999.0,'11111222,11111222,99999999' 
TABS,ioos:station:wmo:42045:1,1999-04-03T20:00:00Z,26.2168,-96.4998,2.0,21.28318776,24.62978075,-99999.0,'11111222,11111222,99999999' 
TABS,ioos:station:wmo:42045:1,1999-04-03T20:30:00Z,26.2168,-96.4998,2.0,17.59914954,32.51167483,-99999.0,'11111222,11111222,99999999' 
TABS,ioos:station:wmo:42045:1,1999-04-03T21:00:00Z,26.2168,-96.4998,2.0,21.34575254,31.51163912,-99999.0,'11111222,11111222,99999999' 
TABS,ioos:station:wmo:42045:1,1999-04-03T21:30:00Z,26.2168,-96.4998,2.0,27.16428433,31.65103632,-99999.0,'11111222,11111222,99999999' 
TABS,ioos:station:wmo:42045:1,1999-04-03T22:00:00Z,26.2168,-96.4998,2.0,29.90953025,31.96760391,-99999.0,'11111222,11111222,99999999' 
TABS,ioos:station:wmo:42045:1,1999-04-03T22:30:00Z,26.2168,-96.4998,2.0,36.6374292,36.95030446,-99999.0,'11111222,11111222,99999999' 
TABS,ioos:station:wmo:42045:1,1999-04-03T23:00:00Z,26.2168,-96.4998,2.0,56.31548885,29.0108204,-99999.0,'11111222,11111222,99999999' 
TABS,ioos:station:wmo:42045:1,1999-04-03T23:30:00Z,26.2168,-96.4998,2.0,45.00010523,34.76136936,-99999.0,'11111222,11111222,99999999' 
TABS,ioos:station:wmo:42045:1,1999-04-04T00:00:00Z,26.2168,-96.4998,2.0,94.0324139,44.51018872,-99999.0,'11111222,11111222,99999999' 
TABS,ioos:station:wmo:42045:1,1999-04-04T00:30:00Z,26.2168,-96.4998,2.0,72.40106092,32.51167483,-99999.0,'11111222,11111222,99999999' 
TABS,ioos:station:wmo:42045:1,1999-04-04T01:00:00Z,26.2168,-96.4998,2.0,67.53571716,36.27244133,-99999.0,'11111222,11111222,99999999' 
TABS,ioos:station:wmo:42045:1,1999-04-04T01:30:00Z,26.2168,-96.4998,2.0,77.99643599,40.82260403,-99999.0,'11111222,11111222,99999999' 
TABS,ioos:station:wmo:42045:1,1999-04-04T02:00:00Z,26.2168,-96.4998,2.0,87.04078273,46.10147503,-99999.0,'11111222,11111222,99999999' 
TABS,ioos:station:wmo:42045:1,1999-04-04T02:30:00Z,26.2168,-96.4998,2.0,97.45511139,44.77852275,-99999.0,'11111222,11111222,99999999' 
TABS,ioos:station:wmo:42045:1,1999-04-04T03:00:00Z,26.2168,-96.4998,2.0,101.9412988,45.38206804,-99999.0,'11111222,11111222,99999999' 
TABS,ioos:station:wmo:42045:1,1999-04-04T03:30:00Z,26.2168,-96.4998,2.0,105.1369065,45.07386161,-99999.0,'11111222,11111222,99999999' 
TABS,ioos:station:wmo:42045:1,1999-04-04T04:00:00Z,26.2168,-96.4998,2.0,110.2302853,46.53045992,-99999.0,'11111222,11111222,99999999' 
TABS,ioos:station:wmo:42045:1,1999-04-04T04:30:00Z,26.2168,-96.4998,2.0,113.9865521,45.82765322,-99999.0,'11111222,11111222,99999999' 
TABS,ioos:station:wmo:42045:1,1999-04-04T05:00:00Z,26.2168,-96.4998,2.0,121.9807121,44.4457152,-99999.0,'11111222,11111222,99999999' 
TABS,ioos:station:wmo:42045:1,1999-04-04T05:30:00Z,26.2168,-96.4998,2.0,127.7376295,45.02916499,-99999.0,'11111222,11111222,99999999' 
TABS,ioos:station:wmo:42045:1,1999-04-04T06:00:00Z,26.2168,-96.4998,2.0,128.1234404,44.88474351,-99999.0,'11111222,11111222,99999999' 
TABS,ioos:station:wmo:42045:1,1999-04-04T06:30:00Z,26.2168,-96.4998,2.0,136.0533276,46.15358924,-99999.0,'11111222,11111222,99999999' 
TABS,ioos:station:wmo:42045:1,1999-04-04T07:00:00Z,26.2168,-96.4998,2.0,136.8593274,48.59675401,-99999.0,'11111222,11111222,99999999' 
TABS,ioos:station:wmo:42045:1,1999-04-04T07:30:00Z,26.2168,-96.4998,2.0,142.3732011,42.70172479,-99999.0,'11111222,11111222,99999999' 
TABS,ioos:station:wmo:42045:1,1999-04-04T08:00:00Z,26.2168,-96.4998,2.0,148.4596226,40.73812097,-99999.0,'11111222,11111222,99999999' 
TABS,ioos:station:wmo:42045:1,1999-04-04T08:30:00Z,26.2168,-96.4998,2.0,151.6037302,39.46886494,-99999.0,'11111222,11111222,99999999' 
TABS,ioos:station:wmo:42045:1,1999-04-04T09:00:00Z,26.2168,-96.4998,2.0,145.9506737,39.38171403,-99999.0,'11111222,11111222,99999999' 
TABS,ioos:station:wmo:42045:1,1999-04-04T09:30:00Z,26.2168,-96.4998,2.0,155.3233492,38.53944084,-99999.0,'11111222,11111222,99999999' 
TABS,ioos:station:wmo:42045:1,1999-04-04T10:00:00Z,26.2168,-96.4998,2.0,159.3951895,37.25304014,-99999.0,'11111222,11111222,99999999' 
TABS,ioos:station:wmo:42045:1,1999-04-04T10:30:00Z,26.2168,-96.4998,2.0,164.973511,37.33665759,-99999.0,'11111222,11111222,99999999' 
TABS,ioos:station:wmo:42045:1,1999-04-04T11:00:00Z,26.2168,-96.4998,2.0,166.649096,42.57047451,-99999.0,'11111222,11111222,99999999' 
TABS,ioos:station:wmo:42045:1,1999-04-04T11:30:00Z,26.2168,-96.4998,2.0,177.7486749,41.7522215,-99999.0,'11111222,11111222,99999999' 
TABS,ioos:station:wmo:42045:1,1999-04-04T12:00:00Z,26.2168,-96.4998,2.0,181.6219599,42.03684693,-99999.0,'11111222,11111222,99999999' 
TABS,ioos:station:wmo:42045:1,1999-04-04T12:30:00Z,26.2168,-96.4998,2.0,189.5581707,42.1552476,-99999.0,'11111222,11111222,99999999' 
TABS,ioos:station:wmo:42045:1,1999-04-04T13:00:00Z,26.2168,-96.4998,2.0,189.0861424,40.58933973,-99999.0,'11111222,11111222,99999999' 
TABS,ioos:station:wmo:42045:1,1999-04-04T13:30:00Z,26.2168,-96.4998,2.0,192.0524579,42.81378867,-99999.0,'11111222,11111222,99999999' 
TABS,ioos:station:wmo:42045:1,1999-04-04T14:00:00Z,26.2168,-96.4998,2.0,196.7999476,39.68376242,-99999.0,'11111222,11111222,99999999' 
TABS,ioos:station:wmo:42045:1,1999-04-04T14:30:00Z,26.2168,-96.4998,2.0,183.8846205,50.62632714,-99999.0,'11111222,11111222,99999999' 
TABS,ioos:station:wmo:42045:1,1999-04-04T15:00:00Z,26.2168,-96.4998,2.0,204.0797277,44.55754482,-99999.0,'11111222,11111222,99999999' 
TABS,ioos:station:wmo:42045:1,1999-04-04T15:30:00Z,26.2168,-96.4998,2.0,185.3887495,31.73024582,-99999.0,'11111222,11111222,99999999' 
TABS,ioos:station:wmo:42045:1,1999-04-04T16:00:00Z,26.2168,-96.4998,2.0,184.3341621,33.47574196,-99999.0,'11111222,11111222,99999999' 
TABS,ioos:station:wmo:42045:1,1999-04-04T16:30:00Z,26.2168,-96.4998,2.0,211.150615,32.55403508,-99999.0,'11111222,11111222,99999999' 
TABS,ioos:station:wmo:42045:1,1999-04-04T17:00:00Z,26.2168,-96.4998,2.0,249.4398199,35.65073351,-99999.0,'11111222,11111222,99999999' 
TABS,ioos:station:wmo:42045:1,1999-04-04T17:30:00Z,26.2168,-96.4998,2.0,266.3481636,30.46183842,-99999.0,'11111222,11111222,99999999' 
TABS,ioos:station:wmo:42045:1,1999-04-04T18:00:00Z,26.2168,-96.4998,2.0,275.0716981,32.01532446,-99999.0,'11111222,11111222,99999999' 
TABS,ioos:station:wmo:42045:1,1999-04-04T18:30:00Z,26.2168,-96.4998,2.0,280.5278518,30.15762922,-99999.0,'11111222,11111222,99999999' 
TABS,ioos:station:wmo:42045:1,1999-04-04T19:00:00Z,26.2168,-96.4998,2.0,293.7483868,28.48167481,-99999.0,'11111222,11111222,99999999' 
TABS,ioos:station:wmo:42045:1,1999-04-04T19:30:00Z,26.2168,-96.4998,2.0,303.6015793,25.04474396,-99999.0,'11111222,11111222,99999999' 
TABS,ioos:station:wmo:42045:1,1999-04-04T20:00:00Z,26.2168,-96.4998,2.0,298.3478529,25.73617882,-99999.0,'11111222,11111222,99999999' 
TABS,ioos:station:wmo:42045:1,1999-04-04T20:30:00Z,26.2168,-96.4998,2.0,315.2085616,29.18248961,-99999.0,'11111222,11111222,99999999' 
TABS,ioos:station:wmo:42045:1,1999-04-04T21:00:00Z,26.2168,-96.4998,2.0,320.1182076,30.67638342,-99999.0,'11111222,11111222,99999999' 
TABS,ioos:station:wmo:42045:1,1999-04-04T21:30:00Z,26.2168,-96.4998,2.0,329.1845768,30.53028005,-99999.0,'11111222,11111222,99999999' 
TABS,ioos:station:wmo:42045:1,1999-04-04T22:00:00Z,26.2168,-96.4998,2.0,331.4618086,34.93468477,-99999.0,'11111222,11111222,99999999' 
TABS,ioos:station:wmo:42045:1,1999-04-04T22:30:00Z,26.2168,-96.4998,2.0,334.4403051,37.98769538,-99999.0,'11111222,11111222,99999999' 
TABS,ioos:station:wmo:42045:1,1999-04-04T23:00:00Z,26.2168,-96.4998,2.0,338.8443734,41.70053477,-99999.0,'11111222,11111222,99999999' 
TABS,ioos:station:wmo:42045:1,1999-04-04T23:30:00Z,26.2168,-96.4998,2.0,342.5205451,45.14462537,-99999.0,'11111222,11111222,99999999' 
TABS,ioos:station:wmo:42045:1,1999-04-05T00:00:00Z,26.2168,-96.4998,2.0,345.46687,38.01646485,-99999.0,'11111222,11111222,99999999' 
TABS,ioos:station:wmo:42045:1,1999-04-05T00:30:00Z,26.2168,-96.4998,2.0,0.70080164,36.80275126,-99999.0,'11111222,11111222,99999999' 
TABS,ioos:station:wmo:42045:1,1999-04-05T01:00:00Z,26.2168,-96.4998,2.0,357.8228843,39.2183146,-99999.0,'11111222,11111222,99999999' 
TABS,ioos:station:wmo:42045:1,1999-04-05T01:30:00Z,26.2168,-96.4998,2.0,4.842111948,37.08233272,-99999.0,'11111222,11111222,99999999' 
TABS,ioos:station:wmo:42045:1,1999-04-05T02:00:00Z,26.2168,-96.4998,2.0,9.044543404,36.95951975,-99999.0,'11111222,11111222,99999999' 
TABS,ioos:station:wmo:42045:1,1999-04-05T02:30:00Z,26.2168,-96.4998,2.0,15.17282046,34.73065649,-99999.0,'11111222,11111222,99999999' 
TABS,ioos:station:wmo:42045:1,1999-04-05T03:00:00Z,26.2168,-96.4998,2.0,18.42946181,32.04335969,-99999.0,'11111222,11111222,99999999' 
TABS,ioos:station:wmo:42045:1,1999-04-05T03:30:00Z,26.2168,-96.4998,2.0,13.24360876,33.82968223,-99999.0,'11111222,11111222,99999999' 
TABS,ioos:station:wmo:42045:1,1999-04-06T05:30:00Z,26.2168,-96.4998,2.0,215.9998151,16.99595834,-99999.0,'11111222,11111222,99999999' 
TABS,ioos:station:wmo:42045:1,1999-04-06T06:00:00Z,26.2168,-96.4998,2.0,217.0154972,10.99603565,-99999.0,'11111222,11111222,99999999' 
TABS,ioos:station:wmo:42045:1,1999-04-06T06:30:00Z,26.2168,-96.4998,2.0,225.9971138,12.99859223,-99999.0,'11111222,11111222,99999999' 
TABS,ioos:station:wmo:42045:1,1999-04-06T07:00:00Z,26.2168,-96.4998,2.0,235.0170283,15.00013667,-99999.0,'11111222,11111222,99999999' 
TABS,ioos:station:wmo:42045:1,1999-04-06T09:00:00Z,26.2168,-96.4998,2.0,134.9998948,1.994041123,-99999.0,'11133222,11111222,99999999' 
TABS,ioos:station:wmo:42045:1,1999-04-06T09:30:00Z,26.2168,-96.4998,2.0,171.9507467,1.999699977,-99999.0,'11133222,11111222,99999999' 
TABS,ioos:station:wmo:42045:1,1999-04-06T10:00:00Z,26.2168,-96.4998,2.0,170.8192691,1.00284595,-99999.0,'11133222,11111222,99999999' 
TABS,ioos:station:wmo:42045:1,1999-04-06T10:30:00Z,26.2168,-96.4998,2.0,67.02733239,3.996998874,-99999.0,'11133222,11111222,99999999' 
TABS,ioos:station:wmo:42045:1,1999-04-06T11:00:00Z,26.2168,-96.4998,2.0,70.02509733,6.001008249,-99999.0,'11133222,11111222,99999999' 
TABS,ioos:station:wmo:42045:1,1999-04-06T11:30:00Z,26.2168,-96.4998,2.0,75.01060486,6.998121176,-99999.0,'11133222,11111222,99999999' 
TABS,ioos:station:wmo:42045:1,1999-04-06T12:00:00Z,26.2168,-96.4998,2.0,60.00374934,13.00144607,-99999.0,'11111222,11111222,99999999' 
TABS,ioos:station:wmo:42045:1,1999-04-06T12:30:00Z,26.2168,-96.4998,2.0,68.98898096,14.00090354,-99999.0,'11111222,11111222,99999999' 
TABS,ioos:station:wmo:42045:1,1999-04-06T13:00:00Z,26.2168,-96.4998,2.0,79.01471172,17.99982778,-99999.0,'11111222,11111222,99999999' 
TABS,ioos:station:wmo:42045:1,1999-04-06T13:30:00Z,26.2168,-96.4998,2.0,81.00877375,15.99656213,-99999.0,'11111222,11111222,99999999' 
TABS,ioos:station:wmo:42045:1,1999-04-06T19:30:00Z,26.2168,-96.4998,2.0,136.0029484,21.00429004,-99999.0,'11111222,11111222,99999999' 
TABS,ioos:station:wmo:42045:1,1999-04-06T20:00:00Z,26.2168,-96.4998,2.0,135.9864381,22.99852169,-99999.0,'11111222,11111222,99999999' 
TABS,ioos:station:wmo:42045:1,1999-04-06T20:30:00Z,26.2168,-96.4998,2.0,129.0053581,22.00528346,-99999.0,'11111222,11111222,99999999' 
TABS,ioos:station:wmo:42045:1,1999-04-06T21:00:00Z,26.2168,-96.4998,2.0,132.0037802,22.99826515,-99999.0,'11111222,11111222,99999999' 
TABS,ioos:station:wmo:42045:1,1999-04-06T21:30:00Z,26.2168,-96.4998,2.0,128.9982809,22.9938644,-99999.0,'11111222,11111222,99999999' 
TABS,ioos:station:wmo:42045:1,1999-04-06T22:00:00Z,26.2168,-96.4998,2.0,125.992388,35.00210422,-99999.0,'11111222,11111222,99999999' 
TABS,ioos:station:wmo:42045:1,1999-04-06T22:30:00Z,26.2168,-96.4998,2.0,150.9854478,17.99890274,-99999.0,'11111222,11111222,99999999' 
TABS,ioos:station:wmo:42045:1,1999-04-06T23:00:00Z,26.2168,-96.4998,2.0,147.0000166,32.00297642,-99999.0,'11111222,11111222,99999999' 
TABS,ioos:station:wmo:42045:1,1999-04-06T23:30:00Z,26.2168,-96.4998,2.0,132.9970331,16.99508753,-99999.0,'11111222,11111222,99999999' 
TABS,ioos:station:wmo:42045:1,1999-04-07T00:00:00Z,26.2168,-96.4998,2.0,173.9892196,19.00447579,-99999.0,'11111222,11111222,99999999' 
TABS,ioos:station:wmo:42045:1,1999-04-07T00:30:00Z,26.2168,-96.4998,2.0,120.0032623,21.99778398,-99999.0,'11111222,11111222,99999999' 
TABS,ioos:station:wmo:42045:1,1999-04-07T01:00:00Z,26.2168,-96.4998,2.0,129.979712,15.99956249,-99999.0,'11111222,11111222,99999999' 
TABS,ioos:station:wmo:42045:1,1999-04-07T01:30:00Z,26.2168,-96.4998,2.0,134.9998948,19.99697977,-99999.0,'11111222,11111222,99999999' 
TABS,ioos:station:wmo:42045:1,1999-04-07T02:00:00Z,26.2168,-96.4998,2.0,153.0078662,15.00443268,-99999.0,'11111222,11111222,99999999' 
TABS,ioos:station:wmo:42045:1,1999-04-07T02:30:00Z,26.2168,-96.4998,2.0,144.0055897,14.00363524,-99999.0,'11111222,11111222,99999999' 
TABS,ioos:station:wmo:42045:1,1999-04-07T04:00:00Z,26.2168,-96.4998,2.0,167.1724113,12.07125925,-99999.0,'11111222,11111222,99999999' 